GW1714 Weather Reports


Display with metric or nautical units.
time (UTC)temp
F
wind
direction
speed
MPH
gust
MPH
rain 1hr
in
rain 24hr
in
rain mn
in
humidity
%
barometer
mb
20260902203315 100 346 0.0 3.0 0.00 0.00 0.00 44 1036.6
20260902202814 100 6 0.0 3.0 0.00 0.00 0.00 44 1037.1
20260902202310 100 7 1.0 1.0 0.00 0.00 0.00 45 1036.7
20260902201807 100 41 0.0 3.0 0.00 0.00 0.00 44 1036.8
20260902201301 99 160 1.0 3.0 0.00 0.00 0.00 47 1037.0
20260902200756 99 166 1.0 2.0 0.00 0.00 0.00 46 1037.0
20260902200251 98 187 1.0 2.0 0.00 0.00 0.00 46 1036.9
20260902195747 96 184 2.0 4.0 0.00 0.00 0.00 47 1037.1
20260902195246 99 337 0.0 1.0 0.00 0.00 0.00 44 1037.1
20260902194740 98 169 0.0 3.0 0.00 0.00 0.00 46 1037.2
20260902194235 96 175 2.0 3.0 0.00 0.00 0.00 48 1037.2
20260902193731 96 172 1.0 4.0 0.00 0.00 0.00 49 1037.4
20260902193226 96 180 1.0 2.0 0.00 0.00 0.00 47 1037.4
20260902192724 94 160 3.0 4.0 0.00 0.00 0.00 49 1037.5
20260902192218 95 162 3.0 4.0 0.00 0.00 0.00 49 1037.3
20260902191713 95 192 2.0 5.0 0.00 0.00 0.00 50 1037.5
20260902191207 96 180 0.0 2.0 0.00 0.00 0.00 50 1037.6
20260902190703 94 157 3.0 4.0 0.00 0.00 0.00 50 1037.4
20260902190157 96 172 0.0 2.0 0.00 0.00 0.00 49 1037.7
20260902185653 95 151 0.0 3.0 0.00 0.00 0.00 49 1037.9
20260902185149 94 162 3.0 3.0 0.00 0.00 0.00 53 1037.9
20260902184644 93 165 2.0 3.0 0.00 0.00 0.00 55 1037.8
20260902184139 93 170 2.0 3.0 0.00 0.00 0.00 55 1038.1
20260902183635 93 159 2.0 2.0 0.00 0.00 0.00 53 1037.7
20260902183132 93 170 2.0 2.0 0.00 0.00 0.00 55 1038.0
20260902182627 91 180 0.0 3.0 0.00 0.00 0.00 59 1037.9
20260902182124 91 177 3.0 3.0 0.00 0.00 0.00 59 1038.0
20260902181620 92 172 0.0 1.0 0.00 0.00 0.00 61 1038.2
20260902181118 92 180 0.0 2.0 0.00 0.00 0.00 62 1038.1
20260902180613 92 131 2.0 3.0 0.00 0.00 0.00 62 1038.4
20260902180109 91 180 0.0 1.0 0.00 0.00 0.00 62 1038.2
20260902175608 90 157 3.0 3.0 0.00 0.00 0.00 64 1038.5
20260902175104 90 166 3.0 3.0 0.00 0.00 0.00 64 1038.7
20260902174601 90 180 0.0 2.0 0.00 0.00 0.00 63 1038.5
20260902174056 90 203 0.0 2.0 0.00 0.00 0.00 64 1038.4
20260902173555 90 172 1.0 2.0 0.00 0.00 0.00 66 1038.6
20260902173051 89 168 2.0 3.0 0.00 0.00 0.00 67 1038.9
20260902172545 89 0 0.0 1.0 0.00 0.00 0.00 66 1039.0
20260902172040 89 195 0.0 2.0 0.00 0.00 0.00 67 1039.1
20260902171535 89 90 0.0 2.0 0.00 0.00 0.00 65 1039.0
20260902171031 88 124 2.0 2.0 0.00 0.00 0.00 68 1039.0
20260902170526 87 180 0.0 2.0 0.00 0.00 0.00 69 1039.1
20260902170022 87 169 2.0 2.0 0.00 0.00 0.00 69 1039.2
20260902165521 87 188 1.0 2.0 0.00 0.00 0.00 69 1039.4
20260902165016 86 165 0.0 2.0 0.00 0.00 0.00 69 1039.3
20260902164511 86 188 0.0 1.0 0.00 0.00 0.00 71 1039.4
20260902164010 86 188 0.0 2.0 0.00 0.00 0.00 70 1039.5
20260902163506 86 180 1.0 2.0 0.00 0.00 0.00 71 1039.3
20260902163004 86 188 0.0 1.0 0.00 0.00 0.00 72 1039.6
20260902162458 86 188 0.0 1.0 0.00 0.00 0.00 71 1039.6
20260902161953 85 188 0.0 1.0 0.00 0.00 0.00 72 1039.4
20260902161448 85 172 0.0 1.0 0.00 0.00 0.00 73 1039.5
20260902160944 86 180 0.0 2.0 0.00 0.00 0.00 72 1039.5
20260902160439 86 90 0.0 0.0 0.00 0.00 0.00 72 1039.5
20260902155937 86 45 0.0 2.0 0.00 0.00 0.00 71 1039.7
20260902155433 85 345 0.0 2.0 0.00 0.00 0.00 74 1039.7
20260902154926 84 26 0.0 0.0 0.00 0.00 0.00 76 1039.7
20260902154422 83 21 0.0 2.0 0.00 0.00 0.00 75 1039.8
20260902153922 82 174 0.0 0.0 0.00 0.00 0.00 77 1039.9
20260902153420 83 180 0.0 2.0 0.00 0.00 0.00 77 1040.0
20260902152916 83 151 1.0 2.0 0.00 0.00 0.00 76 1039.9
20260902152412 82 157 1.0 2.0 0.00 0.00 0.00 77 1040.2
20260902151907 82 0 0.0 3.0 0.00 0.00 0.00 77 1040.0
20260902151403 81 180 0.0 0.0 0.00 0.00 0.00 79 1040.0
20260902150857 81 132 0.0 2.0 0.00 0.00 0.00 79 1039.7
20260902150354 81 180 0.0 0.0 0.00 0.00 0.00 80 1039.8
20260902145852 80 15 1.0 1.0 0.00 0.00 0.00 79 1039.8
20260902145348 80 165 0.0 2.0 0.00 0.00 0.00 80 1039.9
20260902144843 80 127 0.0 2.0 0.00 0.00 0.00 80 1039.8
20260902144339 79 160 0.0 1.0 0.00 0.00 0.00 80 1039.5
20260902143834 79 166 0.0 1.0 0.00 0.00 0.00 81 1039.8
20260902143334 78 165 0.0 0.0 0.00 0.00 0.00 80 1039.6
20260902142830 78 172 0.0 1.0 0.00 0.00 0.00 81 1039.7
20260902142326 78 151 0.0 0.0 0.00 0.00 0.00 82 1039.7
20260902141820 78 151 0.0 1.0 0.00 0.00 0.00 81 1039.7
20260902141316 78 160 0.0 1.0 0.00 0.00 0.00 82 1039.5
20260902140815 78 90 0.0 0.0 0.00 0.00 0.00 81 1039.4
20260902140311 77 172 0.0 0.0 0.00 0.00 0.00 83 1039.6
20260902135810 77 8 0.0 0.0 0.00 0.00 0.00 84 1039.5
20260902135307 77 8 0.0 0.0 0.00 0.00 0.00 83 1039.8
20260902134805 76 8 0.0 0.0 0.00 0.00 0.00 85 1039.7
20260902134301 76 8 0.0 0.0 0.00 0.00 0.00 85 1039.6
20260902133756 75 0 1.0 1.0 0.00 0.00 0.00 87 1039.6
20260902133255 75 180 0.0 0.0 0.00 0.00 0.00 87 1039.7
20260902132750 74 157 0.0 1.0 0.00 0.00 0.00 87 1039.5
20260902132246 74 172 0.0 0.0 0.00 0.00 0.00 88 1039.6
20260902131742 73 99 0.0 0.0 0.00 0.00 0.00 88 1039.5
20260902131238 73 187 0.0 1.0 0.00 0.00 0.00 88 1039.6
20260902130737 74 173 0.0 1.0 0.00 0.00 0.00 88 1039.5
20260902130233 74 348 0.0 2.0 0.00 0.00 0.00 87 1039.5
20260902125728 73 0 1.0 1.0 0.00 0.00 0.00 89 1039.4
20260902125224 73 0 0.0 1.0 0.00 0.00 0.00 90 1039.5
20260902124720 72 165 0.0 0.0 0.00 0.00 0.00 92 1039.3
20260902124216 72 165 0.0 1.0 0.00 0.00 0.00 92 1039.5
20260902123711 72 0 0.0 0.0 0.00 0.00 0.00 93 1039.3
20260902123207 71 90 0.0 0.0 0.00 0.00 0.00 93 1039.4
20260902122700 71 90 0.0 0.0 0.00 0.00 0.00 93 1039.3
20260902122156 70 90 0.0 0.0 0.00 0.00 0.00 93 1039.4
20260902121650 70 165 0.0 1.0 0.00 0.00 0.00 93 1039.3
20260902121150 70 165 1.0 1.0 0.00 0.00 0.00 93 1039.4
20260902120647 70 172 0.0 2.0 0.00 0.00 0.00 93 1039.2
20260902120143 71 172 0.0 1.0 0.00 0.00 0.00 93 1039.1
20260902115637 70 15 0.0 0.0 0.00 0.00 0.00 93 1038.9
20260902115134 71 14 1.0 1.0 0.00 0.00 0.00 92 1039.1
20260902114629 71 0 0.0 0.0 0.00 0.00 0.00 92 1038.9
20260902114130 71 0 0.0 0.0 0.00 0.00 0.00 91 1038.8
20260902113625 71 0 0.0 0.0 0.00 0.00 0.00 90 1039.0
20260902113120 71 0 0.0 0.0 0.00 0.00 0.00 89 1038.9
20260902112615 72 0 1.0 3.0 0.00 0.00 0.00 88 1038.8
20260902112112 71 337 0.0 3.0 0.00 0.00 0.00 88 1038.7
20260902111608 72 345 2.0 3.0 0.00 0.00 0.00 88 1038.4
20260902111103 72 349 0.0 2.0 0.00 0.00 0.00 87 1038.8
20260902110559 72 334 1.0 2.0 0.00 0.00 0.00 87 1038.6
20260902110054 72 345 1.0 2.0 0.00 0.00 0.00 88 1038.5
20260902105549 72 344 2.0 2.0 0.00 0.00 0.00 88 1038.5
20260902105049 73 340 0.0 2.0 0.00 0.00 0.00 88 1038.5
20260902104544 72 348 1.0 2.0 0.00 0.00 0.00 89 1038.2
20260902104039 71 0 0.0 1.0 0.00 0.00 0.00 91 1038.4
20260902103534 71 345 0.0 2.0 0.00 0.00 0.00 91 1038.1
20260902103030 71 172 0.0 0.0 0.00 0.00 0.00 91 1038.4
20260902102526 71 172 0.0 0.0 0.00 0.00 0.00 91 1038.1
20260902102023 72 172 0.0 0.0 0.00 0.00 0.00 90 1038.1
20260902101518 73 345 0.0 2.0 0.00 0.00 0.00 87 1038.0
20260902101016 73 334 1.0 2.0 0.00 0.00 0.00 87 1037.8
20260902100511 73 330 2.0 3.0 0.00 0.00 0.00 87 1037.8
20260902100006 72 341 2.0 3.0 0.00 0.00 0.00 87 1037.8
20260902095500 72 343 2.0 3.0 0.00 0.00 0.00 87 1038.0
20260902094959 73 341 2.0 3.0 0.00 0.00 0.00 87 1038.0
20260902094455 73 339 2.0 3.0 0.00 0.00 0.00 87 1037.7
20260902093950 73 334 3.0 3.0 0.00 0.00 0.00 87 1038.0
20260902093445 72 334 3.0 3.0 0.00 0.00 0.00 88 1037.9
20260902092944 73 334 2.0 3.0 0.00 0.00 0.00 87 1037.9
20260902092440 73 341 2.0 3.0 0.00 0.00 0.00 86 1037.7
20260902091939 73 0 0.0 1.0 0.00 0.00 0.00 85 1037.8
20260902091435 73 0 0.0 0.0 0.00 0.00 0.00 85 1037.7
20260902090931 73 279 0.0 0.0 0.00 0.00 0.00 85 1037.8
20260902090426 73 337 0.0 2.0 0.00 0.00 0.00 85 1037.7
20260902085924 74 331 2.0 3.0 0.00 0.00 0.00 85 1037.8
20260902085420 73 342 2.0 2.0 0.00 0.00 0.00 84 1037.6
20260902084915 74 338 2.0 3.0 0.00 0.00 0.00 84 1037.5
20260902084412 74 341 2.0 2.0 0.00 0.00 0.00 84 1037.7
20260902083906 74 348 1.0 2.0 0.00 0.00 0.00 84 1037.7
20260902083401 74 348 1.0 2.0 0.00 0.00 0.00 84 1037.6
20260902082856 74 279 0.0 0.0 0.00 0.00 0.00 84 1037.5
20260902082352 73 352 0.0 0.0 0.00 0.00 0.00 87 1037.6
20260902081848 74 337 1.0 2.0 0.00 0.00 0.00 87 1037.6
20260902081344 74 353 0.0 1.0 0.00 0.00 0.00 86 1037.6
20260902080839 74 340 0.0 2.0 0.00 0.00 0.00 86 1037.6
20260902080335 73 340 1.0 3.0 0.00 0.00 0.00 88 1037.5
20260902075834 74 334 2.0 3.0 0.00 0.00 0.00 88 1037.6
20260902075331 74 346 2.0 3.0 0.00 0.00 0.00 84 1037.4
20260902074826 75 331 0.0 1.0 0.00 0.00 0.00 83 1037.5
20260902074321 75 151 0.0 0.0 0.00 0.00 0.00 85 1037.5
20260902073816 75 151 0.0 2.0 0.00 0.00 0.00 84 1037.6
20260902073312 76 352 0.0 0.0 0.00 0.00 0.00 83 1037.4
20260902072808 76 352 0.0 1.0 0.00 0.00 0.00 81 1037.4
20260902072309 76 353 1.0 1.0 0.00 0.00 0.00 80 1037.5
20260902071800 76 0 0.0 2.0 0.00 0.00 0.00 80 1037.5
20260902071254 76 345 0.0 0.0 0.00 0.00 0.00 80 1037.3
20260902070751 76 355 0.0 1.0 0.00 0.00 0.00 80 1037.5
20260902070250 76 346 0.0 1.0 0.00 0.00 0.00 80 1037.4
20260902065749 77 353 0.0 1.0 0.00 0.00 0.00 80 1037.4
20260902065245 76 0 0.0 0.0 0.00 0.00 0.00 80 1037.6
20260902064740 76 0 0.0 0.0 0.00 0.00 0.00 80 1037.7
20260902064236 77 0 0.0 0.0 0.00 0.00 0.00 81 1037.6
20260902063732 77 348 0.0 1.0 0.00 0.00 0.00 81 1037.6
20260902063232 77 354 0.0 2.0 0.00 0.00 0.00 81 1037.8
20260902062725 77 0 0.0 1.0 0.00 0.00 0.00 81 1037.7
20260902062221 77 353 0.0 1.0 0.00 0.00 0.00 81 1037.9
20260902061719 77 345 0.0 1.0 0.00 0.00 0.00 82 1037.7
20260902061215 77 345 0.0 1.0 0.00 0.00 0.00 82 1037.9
20260902060712 77 345 0.0 2.0 0.00 0.00 0.00 82 1037.9
20260902060208 77 352 0.0 2.0 0.00 0.00 0.00 82 1038.1
20260902055703 77 0 1.0 2.0 0.00 0.00 0.00 81 1038.0
20260902055159 77 349 2.0 2.0 0.00 0.00 0.00 81 1037.8
20260902054654 77 352 2.0 3.0 0.00 0.00 0.00 81 1037.8
20260902054150 77 342 2.0 3.0 0.00 0.00 0.00 81 1037.9
20260902053645 77 326 2.0 3.0 0.00 0.00 0.00 82 1038.0
20260902053145 77 341 2.0 3.0 0.00 0.00 0.00 83 1037.9
20260902052644 77 342 1.0 3.0 0.00 0.00 0.00 81 1038.0
20260902052140 78 355 2.0 2.0 0.00 0.00 0.00 79 1037.7
20260902051639 78 0 1.0 2.0 0.00 0.00 0.00 79 1037.7
20260902051133 78 348 1.0 2.0 0.00 0.00 0.00 81 1038.0
20260902050628 78 345 0.0 0.0 0.00 0.00 0.00 81 1037.7
20260902050123 77 0 1.0 2.0 0.00 0.00 0.00 82 1037.8
20260902045618 77 345 1.0 2.0 0.00 0.00 0.00 83 1037.8
20260902045114 77 348 0.0 2.0 0.00 0.00 0.00 84 1037.8
20260902044609 77 353 0.0 2.0 0.00 0.00 0.00 83 1037.6
20260902044104 77 0 1.0 2.0 0.00 0.00 0.00 83 1037.6
20260902043559 77 354 0.0 1.0 0.00 0.00 0.00 83 1037.8
20260902043054 77 0 1.0 2.0 0.00 0.00 0.00 85 1037.8
20260902042554 77 345 2.0 2.0 0.00 0.00 0.00 85 1037.9
20260902042050 77 354 1.0 2.0 0.00 0.00 0.00 84 1037.7
20260902041549 78 349 0.0 2.0 0.00 0.00 0.00 83 1037.6
20260902041044 78 0 1.0 1.0 0.00 0.00 0.00 82 1037.7
20260902040544 78 352 0.0 1.0 0.00 0.00 0.00 83 1037.9
20260902040038 78 352 0.0 1.0 0.00 0.00 0.00 82 1037.6
20260902035531 78 0 1.0 2.0 0.00 0.00 0.00 81 1037.6
20260902035027 78 0 1.0 2.0 0.00 0.00 0.00 81 1037.3
20260902034526 79 355 2.0 2.0 0.00 0.00 0.00 80 1037.4
20260902034025 79 0 0.0 0.0 0.00 0.00 0.00 78 1037.6
20260902033525 79 0 0.0 0.0 0.00 0.00 0.00 78 1037.6
20260902033020 80 0 0.0 0.0 0.00 0.00 0.00 78 1037.6
20260902032513 80 352 0.0 0.0 0.00 0.00 0.00 77 1037.6
20260902032008 80 352 0.0 0.0 0.00 0.00 0.00 77 1037.5
20260902031503 80 352 0.0 0.0 0.00 0.00 0.00 77 1037.6
20260902030959 80 352 0.0 0.0 0.00 0.00 0.00 77 1037.6
20260902030454 80 352 0.0 0.0 0.00 0.00 0.00 76 1037.5
20260902025952 80 0 0.0 2.0 0.00 0.00 0.00 76 1037.4
20260902025448 81 337 0.0 1.0 0.00 0.00 0.00 75 1037.4
20260902024943 80 354 1.0 1.0 0.00 0.00 0.00 75 1037.7
20260902024438 81 352 0.0 1.0 0.00 0.00 0.00 75 1037.6
20260902023933 81 353 1.0 1.0 0.00 0.00 0.00 76 1037.5
20260902023429 81 345 0.0 1.0 0.00 0.00 0.00 76 1037.4
20260902022928 81 352 1.0 1.0 0.00 0.00 0.00 77 1037.5
20260902022423 81 352 1.0 1.0 0.00 0.00 0.00 76 1037.5
20260902021919 81 348 0.0 1.0 0.00 0.00 0.00 76 1037.3
20260902021419 81 346 0.0 1.0 0.00 0.00 0.00 76 1037.2
20260902020915 81 340 0.0 0.0 0.00 0.00 0.00 76 1037.5
20260902020411 81 346 0.0 1.0 0.00 0.00 0.00 77 1037.5
20260902015906 82 331 0.0 2.0 0.00 0.00 0.00 76 1037.5
20260902015401 82 331 0.0 1.0 0.00 0.00 0.00 75 1037.4
20260902014857 82 0 0.0 1.0 0.00 0.00 0.00 75 1037.4
20260902014354 83 348 1.0 2.0 0.00 0.00 0.00 74 1037.5
20260902013852 82 353 1.0 1.0 0.00 0.00 0.00 74 1037.6
20260902013348 82 0 0.0 1.0 0.00 0.00 0.00 75 1037.3
20260902012843 82 331 0.0 1.0 0.00 0.00 0.00 75 1037.4
20260902012339 83 353 1.0 1.0 0.00 0.00 0.00 75 1037.3
20260902011835 82 0 0.0 2.0 0.00 0.00 0.00 75 1037.2
20260902011329 82 346 1.0 1.0 0.00 0.00 0.00 75 1037.4
20260902010829 82 331 0.0 0.0 0.00 0.00 0.00 77 1037.2
20260902010324 82 331 0.0 1.0 0.00 0.00 0.00 75 1037.3
20260902005823 82 345 1.0 1.0 0.00 0.00 0.00 76 1037.0
20260902005317 82 345 1.0 2.0 0.00 0.00 0.00 77 1037.1
20260902004813 82 342 2.0 2.0 0.00 0.00 0.00 75 1037.0
20260902004308 84 351 2.0 2.0 0.00 0.00 0.00 74 1037.1
20260902003802 84 353 1.0 2.0 0.00 0.00 0.00 73 1037.0
20260902003257 83 346 1.0 2.0 0.00 0.00 0.00 73 1037.0
20260902002753 84 0 1.0 2.0 0.00 0.00 0.00 73 1037.0
20260902002252 84 346 1.0 2.0 0.00 0.00 0.00 72 1037.1
20260902001748 84 345 1.0 1.0 0.00 0.00 0.00 72 1037.0
20260902001243 84 355 0.0 2.0 0.00 0.00 0.00 72 1037.1
20260902000738 85 352 1.0 1.0 0.00 0.00 0.00 71 1037.2
20260902000233 85 0 1.0 1.0 0.00 0.00 0.00 71 1037.1
20260901235727 85 354 0.0 1.0 0.00 0.00 0.00 71 1037.2
20260901235222 85 0 1.0 2.0 0.00 0.00 0.00 71 1037.2
20260901234721 85 352 1.0 1.0 0.00 0.00 0.00 72 1037.1
20260901234222 85 0 1.0 1.0 0.00 0.00 0.00 73 1037.4
20260901233716 86 0 0.0 1.0 0.00 0.00 0.00 74 1037.2
20260901233213 87 7 1.0 1.0 0.00 0.00 0.00 72 1037.2
20260901232713 88 352 1.0 1.0 0.00 0.00 0.00 69 1037.3
20260901232208 89 0 0.0 0.0 0.00 0.00 0.00 66 1037.0
20260901231704 90 352 0.0 0.0 0.00 0.00 0.00 63 1037.3
20260901231201 90 352 0.0 0.0 0.00 0.00 0.00 60 1037.3
20260901230656 92 352 0.0 0.0 0.00 0.00 0.00 56 1037.4
20260901230155 93 352 0.0 0.0 0.00 0.00 0.00 53 1037.3
20260901225651 95 352 0.0 0.0 0.00 0.00 0.00 52 1037.5
20260901225145 95 352 0.0 0.0 0.00 0.00 0.00 51 1037.3
20260901224642 96 188 0.0 1.0 0.00 0.00 0.00 50 1037.2
20260901224138 95 168 0.0 1.0 0.00 0.00 0.00 51 1037.5
20260901223633 95 345 0.0 0.0 0.00 0.00 0.00 51 1037.3
20260901223128 96 215 0.0 2.0 0.00 0.00 0.00 51 1037.3
20260901222624 96 0 0.0 0.0 0.00 0.00 0.00 50 1037.2
20260901222120 96 8 0.0 1.0 0.00 0.00 0.00 50 1037.3
20260901221615 95 0 0.0 0.0 0.00 0.00 0.00 50 1037.5
20260901221111 96 195 0.0 0.0 0.00 0.00 0.00 49 1037.2
20260901220610 96 209 0.0 2.0 0.00 0.00 0.00 49 1037.2
20260901220109 96 0 0.0 2.0 0.00 0.00 0.00 51 1037.1
20260901215608 98 195 0.0 0.0 0.00 0.00 0.00 48 1037.2
20260901215102 96 5 0.0 2.0 0.00 0.00 0.00 49 1037.3
20260901214601 98 192 0.0 1.0 0.00 0.00 0.00 48 1037.3
20260901214101 98 354 0.0 2.0 0.00 0.00 0.00 48 1037.4
20260901213555 98 173 0.0 1.0 0.00 0.00 0.00 47 1037.4
20260901213049 96 175 2.0 2.0 0.00 0.00 0.00 50 1037.4
20260901212544 96 0 2.0 2.0 0.00 0.00 0.00 50 1037.4
20260901212040 96 339 2.0 2.0 0.00 0.00 0.00 50 1037.5
20260901211535 97 192 0.0 1.0 0.00 0.00 0.00 49 1037.4
20260901211032 95 342 2.0 2.0 0.00 0.00 0.00 49 1037.5
20260901210527 95 356 2.0 3.0 0.00 0.00 0.00 51 1037.4
20260901210023 95 356 0.0 2.0 0.00 0.00 0.00 48 1037.5
20260901205517 99 0 0.0 2.0 0.00 0.00 0.00 46 1037.5
20260901205012 98 234 0.0 2.0 0.00 0.00 0.00 48 1037.4
20260901204509 96 0 1.0 2.0 0.00 0.00 0.00 48 1037.5
20260901204003 96 0 2.0 3.0 0.00 0.00 0.00 49 1037.6